Weather History for Macomb, IL

Change the Weather History Date:

Tuesday, March 5, 2013

  Actual Average (KBRL) Record (KBRL)
Temperature  
Mean Temperature 30 °F 37 °F  
Max Temperature 32 °F 46 °F 73 °F (1910)
Min Temperature 29 °F 28 °F -13 °F (1960)
Degree Days  
Heating Degree Days 34 28  
Month to date heating degree days 146  
Since 1 July heating degree days 4524  
Cooling Degree Days 0 0  
Month to date cooling degree days 0  
Year to date cooling degree days 0  
Moisture  
Dew Point 28 °F    
Average Humidity 90    
Maximum Humidity 100    
Minimum Humidity 77    
Precipitation  
Precipitation 0.10 in 0.09 in 0.77 in (1959)
Month to date precipitation 0.43  
Year to date precipitation 3.29  
Sea Level Pressure  
Sea Level Pressure 29.96 in    
Wind  
Wind Speed 13 mph (NW)    
Max Wind Speed 30 mph    
Max Gust Speed 34 mph    
Visibility 6 miles    
Events Rain , Snow    
T = Trace of Precipitation, MM = Missing Value Source: NWS Daily Summary

Daily Weather History Graph

Daily Weather History Graph

Search for Another Location

Airport:

Trip Planner

Search our weather history database for the weather conditions in past years. The results will help you decide how hot, cold, wet, or windy it might be!

Date:

Astronomy

Mar. 05, 2013 Rise Set
Actual Time 6:29 AM CST 5:58 PM CST
Civil Twilight 6:02 AM CST 6:26 PM CST
Nautical Twilight 5:30 AM CST 6:57 PM CST
Astronomical Twilight 4:59 AM CST 7:29 PM CST
Moon 1:43 AM CST (3/5) 11:37 AM CST (3/5)
Length of Visible Light 12h 23m
Length of Day
11h 29m
Last Quarter, 40% of the Moon is Illuminated
Mar 5
Last Quarter
Mar 11
New
Mar 19
First Quarter
Mar 27
Full
Apr 2
Last Quarter

Hourly Weather History & Observations

Time (CST) Temp. Windchill Dew Point Humidity Pressure Visibility Wind Dir Wind Speed Gust Speed Precip Events Conditions
12:15 AM 32.4 °F 25.3 °F 29.7 °F 90% 29.90 in 10.0 mi NE 8.1 mph - N/A   Overcast
12:35 AM 32.4 °F 26.0 °F 29.8 °F 90% 29.90 in 10.0 mi NE 6.9 mph - N/A Rain Light Rain
12:55 AM 32.4 °F 26.9 °F 30.2 °F 92% 29.89 in 7.0 mi ENE 5.8 mph - N/A Rain Light Rain
1:15 AM 32.4 °F 26.9 °F 30.6 °F 93% 29.89 in 7.0 mi ENE 5.8 mph - N/A Rain Light Rain
1:35 AM 32.4 °F 26.9 °F 30.7 °F 94% 29.89 in 7.0 mi NNE 5.8 mph - N/A Rain Light Rain
1:55 AM 32.2 °F 26.7 °F 30.9 °F 95% 29.89 in 7.0 mi North 5.8 mph - N/A Rain Light Rain
2:15 AM 32.0 °F 25.6 °F 31.1 °F 96% 29.88 in 5.0 mi NNE 6.9 mph - N/A Snow Light Snow
2:35 AM 32.2 °F 27.7 °F 31.1 °F 96% 29.88 in 5.0 mi NNE 4.6 mph - N/A Snow Light Snow
2:55 AM 32.0 °F 28.7 °F 31.1 °F 96% 29.88 in 1.0 mi North 3.5 mph - N/A Snow Snow
3:15 AM 31.8 °F 27.3 °F 31.6 °F 99% 29.88 in 1.2 mi North 4.6 mph - 0.02 in Snow Light Snow
3:35 AM 31.8 °F 27.3 °F 31.8 °F 100% 29.87 in 1.5 mi North 4.6 mph - 0.05 in Snow Light Snow
3:55 AM 31.6 °F 26.0 °F 31.6 °F 100% 29.87 in 1.8 mi North 5.8 mph - 0.06 in Snow Light Snow
4:15 AM 31.6 °F 26.0 °F 31.6 °F 100% 29.87 in 2.5 mi North 5.8 mph - N/A Snow Light Snow
4:35 AM 31.6 °F 26.0 °F 31.6 °F 100% 29.87 in 2.5 mi North 5.8 mph - N/A   Overcast
4:55 AM 31.6 °F 27.0 °F 31.6 °F 100% 29.88 in 2.0 mi NNW 4.6 mph - N/A Snow Light Snow
5:15 AM 31.5 °F 25.8 °F 31.5 °F 100% 29.89 in 2.5 mi NW 5.8 mph - N/A Snow Light Snow
5:35 AM 31.5 °F 24.9 °F 31.5 °F 100% 29.90 in 2.5 mi NW 6.9 mph - N/A   Overcast
5:55 AM 31.5 °F 24.9 °F 31.5 °F 100% 29.90 in 3.0 mi NW 6.9 mph - 0.01 in Snow Light Snow
6:15 AM 31.1 °F 23.1 °F 31.1 °F 100% 29.90 in 2.0 mi NW 9.2 mph - 0.01 in Snow Light Snow
6:35 AM 31.1 °F 23.7 °F 31.1 °F 100% 29.90 in 1.5 mi NW 8.1 mph - 0.01 in Snow Light Snow
6:55 AM 30.2 °F 21.9 °F 30.2 °F 100% 29.90 in 1.2 mi NW 9.2 mph - N/A Snow Light Snow
7:15 AM 30.9 °F 22.2 °F 30.9 °F 100% 29.90 in 1.2 mi NW 10.4 mph - N/A Snow Light Snow
7:35 AM 30.6 °F 20.7 °F 30.6 °F 100% 29.92 in 1.2 mi WNW 12.7 mph - 0.01 in Snow Light Snow
7:55 AM 30.6 °F 20.2 °F 30.6 °F 100% 29.92 in 1.2 mi WNW 13.8 mph - 0.01 in Snow Light Snow
8:15 AM 30.6 °F 20.2 °F 30.2 °F 99% 29.92 in 1.5 mi WNW 13.8 mph - N/A Snow Light Snow
8:35 AM 30.6 °F 21.8 °F 30.2 °F 99% 29.91 in 1.2 mi NW 10.4 mph - 0.01 in Snow Light Snow
8:55 AM 30.6 °F 19.4 °F 30.0 °F 98% 29.91 in 1.0 mi NW 16.1 mph - 0.01 in Snow Light Snow
9:15 AM 30.6 °F 18.2 °F 29.8 °F 97% 29.91 in 1.8 mi NW 19.6 mph - N/A Snow Light Snow
9:35 AM 30.2 °F 17.1 °F 29.3 °F 96% 29.90 in 1.5 mi NW 21.9 mph - N/A Snow Light Snow
9:55 AM 30.6 °F 17.9 °F 29.1 °F 94% 29.91 in 2.5 mi WNW 20.7 mph - N/A Snow Light Snow
10:15 AM 30.2 °F 18.1 °F 28.9 °F 95% 29.92 in 2.5 mi WNW 18.4 mph - N/A Snow Light Snow
10:35 AM 30.2 °F 16.8 °F 28.4 °F 93% 29.92 in 4.0 mi WNW 23.0 mph 32.2 mph N/A   Overcast
10:55 AM 30.4 °F 16.7 °F 28.2 °F 92% 29.92 in 3.0 mi NW 24.2 mph 29.9 mph N/A   Overcast
11:15 AM 30.7 °F 17.2 °F 28.4 °F 91% 29.92 in 5.0 mi WNW 24.2 mph - N/A   Overcast
11:35 AM 30.6 °F 17.9 °F 27.9 °F 90% 29.92 in 7.0 mi WNW 20.7 mph - N/A   Overcast
11:55 AM 30.7 °F 16.9 °F 27.3 °F 87% 29.92 in 5.0 mi NW 25.3 mph 33.4 mph N/A   Overcast
12:15 PM 31.1 °F 18.3 °F 27.5 °F 87% 29.93 in 10.0 mi NW 21.9 mph 28.8 mph N/A   Overcast
12:35 PM 31.1 °F 18.0 °F 26.6 °F 83% 29.93 in 10.0 mi WNW 23.0 mph 27.6 mph N/A   Overcast
12:55 PM 31.1 °F 16.4 °F 26.4 °F 83% 29.93 in 10.0 mi WNW 29.9 mph 33.4 mph N/A   Overcast
1:15 PM 31.1 °F 17.7 °F 26.2 °F 82% 29.93 in 10.0 mi WNW 24.2 mph - N/A   Overcast
1:35 PM 30.9 °F 17.2 °F 25.7 °F 81% 29.93 in 10.0 mi WNW 25.3 mph - N/A   Overcast
1:55 PM 30.7 °F 17.5 °F 24.8 °F 79% 29.94 in 10.0 mi WNW 23.0 mph - N/A   Overcast
2:15 PM 30.4 °F 16.5 °F 24.1 °F 77% 29.94 in 10.0 mi WNW 25.3 mph - N/A   Overcast
2:35 PM 30.4 °F 15.9 °F 24.3 °F 78% 29.94 in 10.0 mi WNW 27.6 mph - N/A   Overcast
2:55 PM 30.6 °F 16.7 °F 24.4 °F 78% 29.95 in 7.0 mi WNW 25.3 mph 32.2 mph N/A   Overcast
3:15 PM 30.7 °F 17.8 °F 24.3 °F 77% 29.95 in 10.0 mi WNW 21.9 mph - N/A   Overcast
3:35 PM 30.9 °F 17.2 °F 24.4 °F 77% 29.95 in 10.0 mi WNW 25.3 mph 29.9 mph N/A   Overcast
3:55 PM 30.2 °F 15.9 °F 24.8 °F 80% 29.95 in 10.0 mi WNW 26.5 mph 31.1 mph N/A   Overcast
4:15 PM 30.6 °F 18.2 °F 25.5 °F 82% 29.96 in 10.0 mi WNW 19.6 mph 23.0 mph N/A   Overcast
4:35 PM 30.2 °F 18.1 °F 25.7 °F 83% 29.97 in 10.0 mi NW 18.4 mph - N/A   Overcast
4:55 PM 29.8 °F 14.9 °F 26.2 °F 86% 29.97 in 5.0 mi WNW 28.8 mph 34.5 mph N/A   Overcast
5:15 PM 29.7 °F 15.5 °F 26.6 °F 88% 29.98 in 5.0 mi WNW 25.3 mph 33.4 mph N/A   Overcast
5:35 PM 29.8 °F 16.0 °F 26.6 °F 88% 29.99 in 7.0 mi NW 24.2 mph 31.1 mph N/A   Overcast
5:55 PM 29.8 °F 15.7 °F 26.4 °F 87% 30.00 in 7.0 mi NW 25.3 mph 31.1 mph N/A   Overcast
6:15 PM 29.8 °F 15.5 °F 26.6 °F 88% 30.01 in 5.0 mi NW 26.5 mph - N/A   Overcast
6:35 PM 29.8 °F 16.0 °F 26.6 °F 88% 30.02 in 7.0 mi NW 24.2 mph 28.8 mph N/A   Overcast
6:55 PM 29.8 °F 15.2 °F 26.6 °F 88% 30.02 in 5.0 mi NW 27.6 mph 32.2 mph N/A   Overcast
7:15 PM 29.8 °F 15.2 °F 26.6 °F 88% 30.03 in 5.0 mi NW 27.6 mph 33.4 mph N/A   Overcast
7:35 PM 29.8 °F 16.3 °F 26.6 °F 88% 30.03 in 5.0 mi NW 23.0 mph - N/A   Overcast
7:55 PM 29.8 °F 16.3 °F 26.4 °F 87% 30.04 in 7.0 mi NW 23.0 mph 31.1 mph N/A   Overcast
8:15 PM 30.0 °F 16.6 °F 25.9 °F 85% 30.05 in 7.0 mi NW 23.0 mph 28.8 mph N/A   Overcast
8:35 PM 30.0 °F 17.2 °F 25.7 °F 84% 30.06 in 7.0 mi NW 20.7 mph 27.6 mph N/A   Overcast
8:55 PM 30.0 °F 17.2 °F 25.7 °F 84% 30.07 in 10.0 mi NW 20.7 mph 27.6 mph N/A   Overcast
9:15 PM 29.8 °F 17.0 °F 25.7 °F 85% 30.08 in 10.0 mi NW 20.7 mph 26.5 mph N/A   Overcast
9:35 PM 29.7 °F 16.4 °F 25.5 °F 85% 30.10 in 10.0 mi NW 21.9 mph 27.6 mph N/A   Overcast
9:55 PM 29.3 °F 15.6 °F 25.7 °F 86% 30.11 in 10.0 mi NW 23.0 mph 27.6 mph N/A   Overcast
10:15 PM 29.3 °F 16.2 °F 26.1 °F 88% 30.12 in 7.0 mi NNW 20.7 mph 27.6 mph N/A   Overcast
10:35 PM 29.1 °F 15.4 °F 26.2 °F 89% 30.12 in 5.0 mi NNW 23.0 mph - N/A Snow Light Snow
10:55 PM 29.1 °F 16.7 °F 26.4 °F 90% 30.13 in 10.0 mi NNW 18.4 mph - N/A   Overcast
11:15 PM 29.1 °F 17.1 °F 26.2 °F 89% 30.14 in 10.0 mi NW 17.3 mph 23.0 mph N/A   Overcast
11:35 PM 29.3 °F 17.3 °F 25.9 °F 87% 30.15 in 10.0 mi NW 17.3 mph 23.0 mph N/A   Overcast
11:55 PM 29.1 °F 17.5 °F 25.7 °F 87% 30.15 in 10.0 mi NW 16.1 mph - N/A   Overcast